Regional Weather Roundup
Issued by NWS Wakefield, VA

Home | Current Version | Previous Version | Graphics & Text | Print | Product List | Glossary On
Versions: 1 2 3 4 5 6 7 8 9 10 11 12 13 14 15 16 17 18 19 20 21 22 23 24 25 26 27 28 29 30 31 32 33 34 35 36 37 38 39 40 41 42 43 44 45 46 47 48 49 50
000
ASUS41 KAKQ 200010
RWRAKQ

REGIONAL WEATHER ROUNDUP
NATIONAL WEATHER SERVICE WAKEFIELD VA
800 PM EDT FRI SEP 19 2014

Note: "fair" indicates few or no clouds below 12,000 feet with no
significant weather and/or obstructions to visibility. * = Denotes
station may not report precipitation (e.g., rain,snow,etc.),
thunder or fog.

VAZ042-051-052>054-056-200100-
NORTHERN VIRGINIA

CITY           SKY/WX    TMP DP  RH WIND       PRES   REMARKS
WASH NATIONAL  MOCLDY    72  58  61 E9        30.27R
DULLES         CLOUDY    68  52  56 SE6       30.27R
FORT BELVOIR   PTCLDY    67  59  73 VRB3      30.27R
QUANTICO       MOCLDY    71  57  61 E8        30.27R
FREDERICKSBRG* MOCLDY    69  60  73 CALM      30.25R
STAFFORD*      CLOUDY    66  61  84 CALM      30.29R
WARRENTON      CLOUDY    68  64  88 CALM      30.25S
CULPEPER*      CLOUDY    66  61  82 CALM      30.26S
MANASSAS*      CLOUDY    70  57  64 E5        30.26R
LEESBURG*      CLOUDY    72  54  53 SE3       30.27R
WINCHESTER     CLOUDY    66  55  68 SE3       30.26R
FRONT ROYAL*   CLOUDY    64  59  82 CALM      30.25S
LURAY*         CLOUDY    68  59  73 CALM      30.26R
$$

VAZ048-049-060>072-079>083-200100-
CENTRAL AND SOUTH CENTRAL VIRGINIA...AND NORTH CENTRAL NORTH CAROLINA

CITY           SKY/WX    TMP DP  RH WIND       PRES   REMARKS
RICHMOND       PTCLDY    69  58  67 E6        30.25R
CHESTERFIELD*  MOCLDY   N/A N/A N/A E3        30.26R
PETERSBURG*    CLOUDY    69  56  64 E5        30.24S
HANOVER        CLOUDY    68  61  78 CALM      30.27R
TAPPAHANNOCK*  PTCLDY    63  54  74 CALM      30.25F
CHARLOTTSVILLE CLOUDY    65  59  81 CALM      30.26S
ORANGE*        CLOUDY    66  61  82 CALM      30.27S
LOUISA*        CLOUDY    66  63  88 CALM      30.24S
FARMVILLE*     CLOUDY    66  64  94 NE3       30.23R
CREWE*         MOCLDY    64  60  86 CALM      30.24R
FORT PICKETT*  CLOUDY    66  59  78 E3        30.23S
LUNENBURG*     MOCLDY    67  62  84 CALM      30.23S
SOUTH HILL*    MOCLDY    70  64  83 CALM      30.28S
LAWRENCEVILLE* CLEAR     67  61  81 NE3       30.23S
ROANOKE RAPIDS PTCLDY    68  59  73 E3        30.22S
RALEIGH        PTCLDY    70  60  70 E7        30.20S
$$

VAZ088>098-200100-
SOUTHEAST VIRGINIA

CITY           SKY/WX    TMP DP  RH WIND       PRES   REMARKS
NORFOLK        CLEAR     70  57  63 E5        30.24S
VIRGINIA BEACH PTCLDY    69  55  60 E6        30.23S
NORFOLK NAVAL  PTCLDY    69  57  65 E5        30.25F
WEST POINT*    PTCLDY    67  62  84 E3        30.27R
NEWPORT NEWS   CLEAR     69  57  65 CALM      30.24F
LANGLEY AFB    CLEAR     69  58  67 E6        30.24S
FORT EUSTIS    PTCLDY    69  54  58 CALM      30.23S
WILLIAMSBURG*  PTCLDY    70  61  73 CALM      30.25S
HR EXEC AP*    PTCLDY    63  55  77 E6        30.25F
FRANKLIN*      PTCLDY    64  61  88 CALM      30.24S
WAKEFIELD      CLOUDY    68  59  73 CALM      30.24S
$$

VAZ020-022-025-037-045-200100-
WEST CENTRAL AND SOUTHWEST VIRGINIA

CITY           SKY/WX    TMP DP  RH WIND       PRES   REMARKS
STAUNTON*      CLOUDY    64  56  75 CALM      30.28S
HOT SPRINGS VA CLOUDY    50  48  92 SE9       30.32S
LYNCHBURG      CLOUDY    62  60  93 N3        30.26S
DANVILLE       CLOUDY    66  60  81 NE6       30.23S
SOUTH BOSTON*  NOT AVBL
MARTINSVILLE   PTCLDY    63  62  97 N3        30.27R
ROANOKE        CLOUDY    61  57  87 N3        30.28R
BLACKSBURG     CLOUDY    59  59 100 NE5       30.30R
DUBLIN*        CLOUDY    61  60  97 NE6       30.28R
MARION*        CLOUDY    65  58  79 NE8       30.27R
HILLSVILLE*    CLOUDY    60  58  93 SE3       30.27R
RICHLANDS*     CLEAR     67  58  72 SE8       30.21R
WISE*          PTCLDY    68  55  64 S7        30.20R
ABINGDON*      CLEAR     69  56  64 CALM      30.19R
$$

MDZ021>025-VAZ099-100-200100-
SOUTHERN MARYLAND AND THE DELMARVA PENINSULA

CITY           SKY/WX    TMP DP  RH WIND       PRES   REMARKS
PATUXENT RIVER PTCLDY    69  60  73 E14       30.26S
BAY BRIDGE APT   N/A     66  55  68 E9        30.29R
LEONARDTOWN    PTCLDY    68  59  73 E6        30.28S
DOVER          CLOUDY    66  59  79 E12       30.28S
GEORGETOWN     PTCLDY    65  58  78 E14       30.30R
EASTON         CLEAR     66  59  77 CALM      30.33R
CAMBRIDGE      PTCLDY    64  59  82 E6        30.28S
SALISBURY      CLEAR     66  60  81 NE6       30.28R
OCEAN CITY     CLEAR     70  58  65 E13       30.28R
WALLOPS ISLAND CLEAR     70  59  68 E9        30.27R
ACCOMACK*      CLEAR     61  55  82 CALM      30.26S
$$

NCZ012>017-030>032-200100-
EASTERN NORTH CAROLINA

CITY           SKY/WX    TMP DP  RH WIND       PRES   REMARKS
ELIZABETH CITY CLEAR     69  58  67 NE9       30.23S
AHOSKIE*       PTCLDY    66  58  74 CALM      30.23S
EDENTON*       CLEAR     66  59  77 E3        30.23R
CURRITUCK*     CLEAR     71  57  60 NE8       30.24S
KILL DEVIL HLS CLEAR     72  58  60 NE8       30.21S
MANTEO         CLEAR     71  58  63 NE13G18   30.22S
CAPE HATTERAS  MOCLDY    71  61  70 NE8G18    30.19R
TARBORO*       CLEAR     67  61  80 E3        30.22S
GOLDSBORO      NOT AVBL
WASHINGTON     PTCLDY    67  58  72 NE5       30.21S
GREENVILLE     CLEAR     70  59  68 E6        30.22R
NEW BERN       MOCLDY    73  59  61 NE8       30.20S
WILMINGTON     MOCLDY    72  65  78 NE9       30.15R
$$

VAZ048-200100-
ELSEWHERE

CITY           SKY/WX    TMP DP  RH WIND       PRES   REMARKS
HARRISBURG PA  PTCLDY    64  54  69 SE7       30.28R
BALTIMORE      MOCLDY    67  56  67 E10       30.28R
ANNAPOLIS      CLEAR     68  59  73 E15       30.28R
ANDREWS AFB    CLOUDY    66  59  77 E6        30.28R
WILMINGTON DE  CLEAR     63  55  75 E10       30.32R
PHILADELPHIA   PTCLDY    62  54  74 E13       30.33R
WILDWOOD NJ*   PTCLDY    64  55  72 E8        30.31S
ATLANTIC CITY  PTCLDY    61  56  83 E8        30.32R
HENDERSON NC   CLEAR     66  62  85 NE3       30.22S
GREENSBORO     PTCLDY    66  62  87 NE7       30.21R
ROCKY MOUNT    CLEAR     68  54  60 E3        30.21R
FAYETTEVILLE   PTCLDY    70  63  78 NE6       30.16S
CHARLOTTE      PTCLDY    73  58  59 E9        30.18R
$$

VAZ100-200100-
MARINE

STATION/POSITION TIME  TEMP    WIND        PRES    WAVE   SWELL
                       AIR SEA DIR/SP/G            HT/PER HT/PER
                 (UTC) (F)     (DEG/KT/KT) (MB)    (FT/S) (FT/S)
44066 TX TWR #4  0000   64 72   80/ 16/ 17 1026.8R   6/ 7   3/ 7
CAPE MAY NJ      0000   66 75   80/  7/ 12 1025.4R
LEWES DE         0000   68 73   90/ 17/ 21 1025.3R
15NM E FENWICK I 0000   70 72              1025.0R   5/ 7
OCEAN-CITY-INLET 0000   70 72  100/  9/ 14 1024.9R
WACHAPREAGUE VA  0000   71 75   70/  7/ 11 1024.5S
THOMAS POINT MD  0000   68 74  110/ 17/ 19 1026.2R
GOOSES REEF MD   0000   70     120/ 16/ 19 1025.5R
COVE POINT MD    0000   69     120/ 12/ 14 1024.9S
SOLOMONS ISLAND  0000      76                N/A
BISHOPS HEAD MD  0000   69 73   90/ 13/ 17 1024.5S
PINEY POINT MD   0000          110/ 14/ 16   N/A
POTOMAC MD       0000   72     110/ 14/ 17 1023.9R
CAMBRIDGE MD     0000   68 74   90/ 10/ 13 1025.1R
LEWISETTA VA     0000   71 75  150/  8/ 11 1024.2R
RAPPAHANNOCK LGT 0000           70/  8/  8 1024.9S
STINGRAY PT      0000   72     120/  8/ 10   N/A
YORK RVR RNG VA  0000   72     120/ 10/ 11 1023.5F
YORKTOWN VA      0000   72 76  110/  7/  9 1023.8S
JAMESTOWN VA     0000   71     110/  6/  8   N/A
DOMINION TERM VA 0000   72     100/  8/ 11 1024.0F
KIPTOPEKE VA     0000      80   90/  3/  5   N/A
CHES BAY BRIDGE  0000   72 76   60/ 11/ 13 1023.5F
CAPE HENRY VA    0000   72      70/ 11/ 13 1022.7F
CHESAPEAKE LGHT  2300   72      70/ 12/ 14 1024.6R
WILLOUBY STN VA  0000   72      60/  5/  7 1022.8S
S CRANEY ISL VA  0000           60/  7/  8 1023.7F
CAPE HENRY BUOY  0000      76                N/A     3/ 6
1ST LANDING BUOY 0000   72      80/ 12/ 14 1023.6S
CAPE CHARLES BUO 0000      75                N/A     3/10   2/10
OFFSHORE WE BUOY 0000      74                N/A     3/10   2/10
64NM E OF VA BCH 0000   73 75   50/ 16/ 21 1023.1S   4/ 7   2/ 7
DUCK PIER NC     0000   73 75   50/ 17/ 19 1022.7S
44100 DUCK FRF   2300      74                N/A     4/ 7   2/11
44056 DUCK FRF   0000                        N/A     3/ 7
OREGON INLET NC  0000   73 74   40/ 14/ 19 1022.7R
HATTERAS NC      0000   73 75   40/ 14/ 18 1022.5S
DIAMOND SHLS NC  0000   75      30/ 19/ 23 1021.2R   6/ 7   2/10
CAPE LOOKOUT NC  2300   75      40/ 20/ 25 1021.1S
$$



USA.gov is the U.S. government's official web portal to all federal, state and local government web resources and services.